This demonstration page uses our WeatherBlox Daily Observations layout. Learn more.

Left ArrowRight Arrow

Hourly Observations for September 26, 2017

Temp ( °F °C ) Dew Point ( °F °C ) Humidity (%) Winds ( mph kmh ) Pressure ( in mb ) Visibility ( mi km ) Precip ( " mm )
12:51 am 00:51 Clear 57 13.9 13 -10.6 17 17 N N/A 29.72 1006 10 16 N/A
1:51 am 01:51 Clear 53 11.7 14 -10 21 21 N N/A 29.72 1007 10 16 N/A
2:51 am 02:51 Clear 56 13.3 16 -8.9 21 21 S 3 6 29.72 1007 10 16 N/A
3:51 am 03:51 Clear 52 11.1 15 -9.4 23 23 E 6 9 29.74 1007 10 16 N/A
4:51 am 04:51 Clear 51 10.6 15 -9.4 24 24 S 3 6 29.75 1008 10 16 N/A
5:51 am 05:51 Clear 52 11.1 15 -9.4 23 23 N N/A 29.77 1008 10 16 N/A
6:51 am 06:51 undefined N/A N/A N/A undefined N/A N/A N/A N/A
7:51 am 07:51 undefined N/A N/A N/A undefined N/A N/A N/A N/A
8:51 am 08:51 Sunny 72 22.2 20 -6.7 14 14 E 10 17 29.82 1010 10 16 N/A
9:51 am 09:51 Sunny 82 27.8 21 -6.1 10 10 E 10 17 29.79 1009 N/A N/A
10:51 am 10:51 undefined N/A N/A N/A undefined N/A N/A N/A N/A
11:51 am 11:51 undefined 82 27.8 23 -5 11 11 undefined N/A 29.75 1007 N/A N/A
12:51 pm 12:51 Sunny 84 28.9 28 -2.2 13 13 N N/A 29.71 1006 10 16 N/A
1:51 pm 13:51 Sunny 85 29.4 29 -1.7 13 13 VRB 5 7 29.70 1006 10 16 N/A
2:51 pm 14:51 Sunny 87 30.6 29 -1.7 12 12 SE 9 15 29.66 1005 10 16 N/A
3:51 pm 15:51 Sunny 87 30.6 29 -1.7 12 12 VRB 6 9 29.66 1004 10 16 N/A
4:51 pm 16:51 Sunny 86 30 27 -2.8 12 12 SW 7 11 29.66 1004 10 16 N/A
5:51 pm 17:51 Sunny 83 28.3 30 -1.1 15 15 SSW 6 9 29.66 1005 10 16 N/A
6:51 pm 18:51 Clear 78 25.6 32 undefined 19 19 N N/A 29.59 1002 10 16 N/A
7:51 pm 19:51 Clear 74 23.3 29 -1.7 19 19 WNW 8 13 29.62 1003 10 16 N/A
8:51 pm 20:51 Clear 72 22.2 22 -5.6 15 15 NNW 9 15 29.70 1006 10 16 N/A
9:51 pm 21:51 Clear 74 23.3 20 -6.7 13 13 NW 13 20 29.68 1005 10 16 N/A
10:51 pm 22:51 Clear 68 20 22 -5.6 17 17 WNW 9 15 29.74 1007 10 16 N/A
11:51 pm 23:51 undefined N/A N/A N/A undefined N/A N/A N/A N/A

Powered by AerisWeather